Location: Chmeln�
(49.6483°N, 14.9871°E)
Time: 06:33:20
(UTC+00:00)

Lacrosse 5 rocket - Pass Details

Date: 20 January 2021
Orbit: 465 x 630 km, 57.0° (Epoch: 06 March)

Event Time Altitude Azimuth Distance (km) Brightness Sun altitude
Exits shadow 05:17:07 25° 294° (WNW) 1,062 2.2 -14.2°
Maximum altitude 05:19:13 65° 219° (SW) 556 1.2 -13.9°
Drops below altitude 10° 05:22:56 10° 137° (SE) 1,667 4.7 -13.3°
Sets 05:25:02 0° 135° (SE) 2,525 5.9 -13.0°
